Flag for Brazil Weather past 2 weeks in Maceió, Alagoas, Brazil

Now
70 °F

Passing clouds.


Feels Like: 70 °F
Forecast: 74 / 84 °F
Wind: 5 mph from East

Location: Maceio Aeroporto

Current Time: May 25, 2015 at 11:51:47 PM

Latest Report: May 25, 2015 at 11:00 PM


Visibility: N/A

Pressure: 29.98 "Hg

Humidity: 94%

Dew point: 68 °F

Location of MaceióLocation

Historic Weather in Maceió — Graph

°F

Maceió temperature yesterday

Maximum temperature yesterday: 79 °F (at 3:00 PM)
Minimum temperature yesterday: 66 °F (at 1:00 AM)
Average temperature yesterday: 72 °F

Past Weeks' High & Low Weather Summary

 TemperatureHumidityPressure
High88 °F (May 13, 12:00 PM)100% (May 11, 1:00 AM)30.09 "Hg (May 11, 1:00 AM)
Low66 °F (May 24, 1:00 AM)43% (May 17, 1:00 PM)29.89 "Hg (May 11, 3:00 AM)
Average75 °F83%29.98 "Hg
* Reported May 10 11:00 PM — May 25 11:00 PM, Maceió, Weather by CustomWeather, © 2015

Note: Actual official high and low records may vary slightly from our data, if they occured in-between our weather recording intervals... More about our weather records

Advertising

Maceió weather history for previous 24 hours

 ConditionsComfort  
Time TempWeatherWind HumidityBarometerVisibility
11:00 PM
Mon, May 25
70 °FPassing clouds.5 mph94%29.98 "HgN/A
10:00 PM70 °FPassing clouds.5 mph94%29.98 "HgN/A
9:00 PM70 °FPassing clouds.3 mph94%29.98 "HgN/A
8:00 PM70 °FPassing clouds.5 mph94%29.98 "HgN/A
7:00 PM72 °FPassing clouds.5 mph88%29.95 "HgN/A
6:00 PM72 °FPassing clouds.6 mph88%29.95 "HgN/A
5:00 PM75 °FScattered clouds.7 mph78%29.92 "HgN/A
4:00 PM79 °FScattered clouds.12 mph70%29.92 "HgN/A
3:00 PM81 °FScattered clouds.9 mph62%29.89 "HgN/A
2:00 PM81 °FScattered clouds.16 mph66%29.92 "HgN/A
1:00 PM81 °FScattered clouds.15 mph66%29.92 "HgN/A
12:00 PM81 °FScattered clouds.9 mph66%29.95 "HgN/A
11:00 AM81 °FScattered clouds.14 mph66%29.98 "HgN/A
10:00 AM77 °FPartly sunny.10 mph79%30.01 "HgN/A
9:00 AM77 °FPartly sunny.6 mph79%30.01 "HgN/A
8:00 AM75 °FScattered clouds.8 mph83%29.98 "HgN/A
7:00 AM70 °FScattered clouds.3 mph94%29.98 "HgN/A
6:00 AM66 °FScattered clouds.3 mph100%29.95 "HgN/A
5:00 AM66 °FPassing clouds.2 mph100%29.95 "HgN/A
4:00 AM66 °FPassing clouds.3 mph100%29.95 "HgN/A
3:00 AM66 °FClear.3 mph100%29.95 "Hg10 mi
2:00 AM66 °FClear.2 mph100%29.95 "Hg10 mi
1:00 AM68 °FPassing clouds.3 mph94%29.98 "HgN/A
12:00 AM68 °FPassing clouds.3 mph94%29.98 "HgN/A
11:00 PM
Sun, May 24
70 °FPassing clouds.3 mph94%29.98 "HgN/A
Weather by CustomWeather, © 2015

See weather overviewHow to use our weather pages